Retour au catalogue

STARLINK-30315

ActifCommunicationsVLEO
NORAD 57708·PAYLOAD·🇺🇸 United States

Lancé Aug 27, 2023 depuis Cape Canaveral Space Force Station

Loading…

Prochains Passages (prochaines 24 heures)

TLE

FraisSource: CelesTrak SupGP

Époque: Sep 14, 2026, 22:09 UTC

1 57708C 23129L   26257.92340278 -.00001101  00000+0 -39887-4 0  2571
2 57708  42.9999 129.1590 0001412 272.3691 102.7957 15.27571571    19

Suivez STARLINK-30315 en temps réel avec AllMySat

Download on the App Store